When you browse on this site, cookies collect data to enhance your experience and personalize the content and advertising you see.
Visit our Privacy Policy to learn more. By continuing to use the site, you agree to this use of cookies and data.
  • In Belgien
  • Länderverzeichnis
  • Für 7 Tage
  • Wassertemperatur
  • Satellitenkarten
  • Wetterkarte
  • Widgets
  • user-avatar
    Anmelden

    Stündliche Wetter Bjala

    Heute, 26 Juni, Mittwoch

    Zeit Temperatur Niederschläge Wind Luftdruck Luftfeuchtigkeit
    00:00 +22°C° 0.2 mm 6 m/S 754 mmHg 83%
    01:00 +21°C° 0.2 mm 6 m/S 754 mmHg 85%
    02:00 +21°C° 0.2 mm 7 m/S 754 mmHg 86%
    03:00 +21°C° 0.1 mm 7 m/S 754 mmHg 85%
    04:00 +21°C° 0.1 mm 7 m/S 754 mmHg 85%
    05:00 +21°C° 0.1 mm 7 m/S 754 mmHg 85%
    06:00 +23°C° 0.3 mm 7 m/S 754 mmHg 78%
    07:00 +26°C° 0.3 mm 8 m/S 754 mmHg 72%
    08:00 +27°C° 0.3 mm 8 m/S 755 mmHg 66%
    09:00 +28°C° 0.5 mm 8 m/S 755 mmHg 62%
    10:00 +29°C° 0.5 mm 9 m/S 755 mmHg 58%
    11:00 +31°C° 0.5 mm 9 m/S 755 mmHg 54%
    12:00 +32°C° 0.2 mm 9 m/S 755 mmHg 53%
    13:00 +32°C° 0.2 mm 10 m/S 755 mmHg 52%
    14:00 +32°C° 0.2 mm 10 m/S 755 mmHg 52%
    15:00 +32°C° 0.1 mm 10 m/S 755 mmHg 53%
    16:00 +31°C° 0.1 mm 9 m/S 755 mmHg 55%
    17:00 +29°C° 0.1 mm 8 m/S 754 mmHg 57%
    18:00 +28°C° 0.1 mm 8 m/S 754 mmHg 65%
    19:00 +26°C° 0.1 mm 7 m/S 754 mmHg 73%
    20:00 +24°C° 0.1 mm 6 m/S 754 mmHg 81%
    21:00 +23°C° 0.1 mm 6 m/S 754 mmHg 85%
    22:00 +23°C° 0.1 mm 5 m/S 754 mmHg 89%
    23:00 +22°C° 0.1 mm 4 m/S 754 mmHg 92%

    Morgen, 27 Juni, Donnerstag

    Zeit Temperatur Niederschläge Wind Luftdruck Luftfeuchtigkeit
    00:00 +21°C° 0 mm 4 m/S 754 mmHg 93%
    01:00 +21°C° 0 mm 4 m/S 754 mmHg 94%
    02:00 +20°C° 0 mm 4 m/S 754 mmHg 95%
    03:00 +20°C° 0 mm 4 m/S 753 mmHg 95%
    04:00 +20°C° 0 mm 4 m/S 753 mmHg 94%
    05:00 +19°C° 0 mm 4 m/S 753 mmHg 94%
    06:00 +21°C° 0 mm 4 m/S 753 mmHg 83%
    07:00 +23°C° 0 mm 4 m/S 753 mmHg 71%
    08:00 +26°C° 0 mm 4 m/S 753 mmHg 60%
    09:00 +28°C° 0 mm 3 m/S 753 mmHg 53%
    10:00 +29°C° 0 mm 3 m/S 752 mmHg 45%
    11:00 +31°C° 0 mm 3 m/S 752 mmHg 38%
    12:00 +31°C° 0 mm 3 m/S 752 mmHg 37%
    13:00 +33°C° 0 mm 3 m/S 751 mmHg 37%
    14:00 +33°C° 0 mm 3 m/S 751 mmHg 36%
    15:00 +33°C° 0 mm 3 m/S 750 mmHg 40%
    16:00 +31°C° 0 mm 3 m/S 749 mmHg 43%
    17:00 +30°C° 0 mm 2 m/S 749 mmHg 46%
    18:00 +28°C° 0 mm 2 m/S 749 mmHg 55%
    19:00 +26°C° 0 mm 2 m/S 748 mmHg 63%
    20:00 +24°C° 0 mm 3 m/S 748 mmHg 71%
    21:00 +22°C° 0 mm 3 m/S 748 mmHg 73%
    22:00 +22°C° 0 mm 3 m/S 748 mmHg 75%
    23:00 +21°C° 0 mm 3 m/S 748 mmHg 77%

    übermorgen, 28 Juni, Freitag

    Zeit Temperatur Niederschläge Wind Luftdruck Luftfeuchtigkeit
    00:00 +21°C° 0 mm 3 m/S 747 mmHg 78%
    01:00 +21°C° 0 mm 3 m/S 747 mmHg 79%
    02:00 +21°C° 0 mm 3 m/S 746 mmHg 80%
    03:00 +21°C° 0.1 mm 3 m/S 746 mmHg 82%
    04:00 +21°C° 0.1 mm 4 m/S 746 mmHg 84%
    05:00 +21°C° 0.1 mm 4 m/S 746 mmHg 86%
    06:00 +22°C° 0.2 mm 4 m/S 746 mmHg 84%
    07:00 +23°C° 0.2 mm 5 m/S 746 mmHg 81%
    08:00 +25°C° 0.2 mm 5 m/S 747 mmHg 79%
    09:00 +26°C° 0 mm 5 m/S 747 mmHg 72%
    10:00 +26°C° 0 mm 6 m/S 747 mmHg 66%
    11:00 +27°C° 0 mm 6 m/S 747 mmHg 59%
    12:00 +25°C° 0.2 mm 5 m/S 747 mmHg 65%
    13:00 +22°C° 0.2 mm 4 m/S 748 mmHg 71%
    14:00 +20°C° 0.2 mm 3 m/S 748 mmHg 77%
    15:00 +21°C° 0 mm 2 m/S 748 mmHg 72%
    16:00 +23°C° 0 mm 2 m/S 748 mmHg 67%
    17:00 +24°C° 0 mm 1 m/S 748 mmHg 61%
    18:00 +23°C° 0 mm 2 m/S 748 mmHg 65%
    19:00 +21°C° 0 mm 3 m/S 749 mmHg 68%
    20:00 +20°C° 0 mm 3 m/S 749 mmHg 71%
    21:00 +20°C° 0 mm 5 m/S 749 mmHg 68%
    22:00 +20°C° 0 mm 6 m/S 750 mmHg 65%
    23:00 +18°C° 0 mm 8 m/S 750 mmHg 61%

    29 Juni, Samstag

    Zeit Temperatur Niederschläge Wind Luftdruck Luftfeuchtigkeit
    00:00 +18°C° 0 mm 7 m/S 750 mmHg 58%
    01:00 +18°C° 0 mm 7 m/S 750 mmHg 54%
    02:00 +18°C° 0 mm 7 m/S 750 mmHg 50%
    03:00 +18°C° 0 mm 7 m/S 750 mmHg 53%
    04:00 +17°C° 0 mm 6 m/S 750 mmHg 55%
    05:00 +17°C° 0 mm 5 m/S 750 mmHg 57%
    06:00 +19°C° 0 mm 5 m/S 751 mmHg 56%
    07:00 +20°C° 0 mm 5 m/S 751 mmHg 54%
    08:00 +20°C° 0 mm 5 m/S 751 mmHg 53%
    09:00 +22°C° 0 mm 6 m/S 751 mmHg 48%
    10:00 +23°C° 0 mm 6 m/S 752 mmHg 43%
    11:00 +26°C° 0 mm 6 m/S 752 mmHg 38%
    12:00 +26°C° 0 mm 6 m/S 752 mmHg 39%
    13:00 +26°C° 0 mm 6 m/S 751 mmHg 40%
    14:00 +26°C° 0 mm 5 m/S 751 mmHg 41%
    15:00 +26°C° 0 mm 5 m/S 751 mmHg 42%
    16:00 +25°C° 0 mm 5 m/S 751 mmHg 43%
    17:00 +25°C° 0 mm 4 m/S 751 mmHg 45%
    18:00 +23°C° 0 mm 4 m/S 751 mmHg 50%
    19:00 +22°C° 0 mm 5 m/S 751 mmHg 56%
    20:00 +20°C° 0 mm 5 m/S 751 mmHg 61%
    21:00 +19°C° 0.2 mm 5 m/S 752 mmHg 67%
    22:00 +17°C° 0.2 mm 5 m/S 752 mmHg 73%
    23:00 +16°C° 0.2 mm 5 m/S 752 mmHg 78%

    30 Juni, Sonntag

    Zeit Temperatur Niederschläge Wind Luftdruck Luftfeuchtigkeit
    00:00 +15°C° 0.1 mm 5 m/S 752 mmHg 78%
    01:00 +15°C° 0.1 mm 6 m/S 753 mmHg 79%
    02:00 +14°C° 0.1 mm 6 m/S 753 mmHg 79%
    03:00 +14°C° 0 mm 6 m/S 753 mmHg 78%
    04:00 +14°C° 0 mm 6 m/S 753 mmHg 78%
    05:00 +14°C° 0 mm 6 m/S 753 mmHg 77%
    06:00 +15°C° 0 mm 6 m/S 753 mmHg 69%
    07:00 +16°C° 0 mm 6 m/S 754 mmHg 61%
    08:00 +19°C° 0 mm 6 m/S 754 mmHg 53%
    09:00 +21°C° 0 mm 6 m/S 754 mmHg 46%
    10:00 +22°C° 0 mm 6 m/S 755 mmHg 40%
    11:00 +24°C° 0 mm 6 m/S 755 mmHg 33%
    12:00 +25°C° 0 mm 5 m/S 755 mmHg 35%
    13:00 +25°C° 0 mm 5 m/S 755 mmHg 38%
    14:00 +25°C° 0 mm 5 m/S 754 mmHg 40%
    15:00 +25°C° 0 mm 5 m/S 754 mmHg 41%
    16:00 +25°C° 0 mm 5 m/S 754 mmHg 42%
    17:00 +25°C° 0 mm 5 m/S 754 mmHg 43%
    18:00 +23°C° 0 mm 5 m/S 754 mmHg 47%
    19:00 +22°C° 0 mm 5 m/S 754 mmHg 50%
    20:00 +21°C° 0 mm 6 m/S 754 mmHg 54%
    21:00 +20°C° 0 mm 5 m/S 755 mmHg 58%
    22:00 +19°C° 0 mm 5 m/S 755 mmHg 62%
    23:00 +17°C° 0 mm 4 m/S 755 mmHg 66%

    1 Juli, Montag

    Zeit Temperatur Niederschläge Wind Luftdruck Luftfeuchtigkeit
    00:00 +17°C° 0 mm 4 m/S 755 mmHg 68%
    01:00 +17°C° 0 mm 4 m/S 755 mmHg 69%
    02:00 +15°C° 0 mm 4 m/S 755 mmHg 71%
    03:00 +15°C° 0 mm 4 m/S 754 mmHg 71%
    04:00 +15°C° 0 mm 4 m/S 754 mmHg 72%
    05:00 +15°C° 0 mm 4 m/S 754 mmHg 72%
    06:00 +18°C° 0 mm 3 m/S 754 mmHg 65%
    07:00 +21°C° 0 mm 3 m/S 754 mmHg 57%
    08:00 +24°C° 0 mm 3 m/S 754 mmHg 49%
    09:00 +25°C° 0 mm 3 m/S 754 mmHg 46%
    10:00 +27°C° 0 mm 2 m/S 754 mmHg 43%
    11:00 +28°C° 0 mm 2 m/S 754 mmHg 40%
    12:00 +29°C° 0 mm 2 m/S 754 mmHg 40%
    13:00 +29°C° 0 mm 3 m/S 754 mmHg 39%
    14:00 +30°C° 0 mm 3 m/S 754 mmHg 39%
    15:00 +30°C° 0 mm 4 m/S 754 mmHg 41%
    16:00 +29°C° 0 mm 4 m/S 753 mmHg 43%
    17:00 +29°C° 0 mm 4 m/S 753 mmHg 45%
    18:00 +27°C° 0 mm 4 m/S 753 mmHg 53%
    19:00 +25°C° 0 mm 4 m/S 753 mmHg 61%
    20:00 +21°C° 0 mm 3 m/S 753 mmHg 69%
    21:00 +21°C° 0 mm 3 m/S 753 mmHg 72%
    22:00 +20°C° 0 mm 3 m/S 753 mmHg 75%
    23:00 +20°C° 0 mm 3 m/S 753 mmHg 78%
    Mehr zeigen